Miscellaneous Local Product
Issued by NWS Hastings, NE

Home | Current Version | Previous Version | Graphics & Text | Print | Product List | Glossary On
Versions: 1 2 3 4 5 6 7 8 9 10 11 12 13 14 15 16 17 18 19 20 21 22 23 24 25 26 27 28 29 30 31 32 33 34 35 36 37 38 39 40 41 42 43 44 45 46 47 48 49 50
000
AXUS43 KGID 281502
MISGRI

GID CWA HOURLY WEATHER ROUNDUP
NATIONAL WEATHER SERVICE HASTINGS NE
1000 AM CDT SAT MAR 28 2015

NOTE: "FAIR" INDICATES FEW OR NO CLOUDS BELOW 12,000 FEET WITH NO
SIGNIFICANT WEATHER AND/OR OBSTRUCTIONS TO VISIBILITY.

...SOUTH CENTRAL NEBRASKA...

CITY           SKY/WX    TMP DP  RH WIND       PRES   REMARKS
GRAND ISLAND   SUNNY     39  27  62 SE7       30.08R WCI  34
HASTINGS       SUNNY     39  26  59 SE12      30.05S WCI  32
KEARNEY        SUNNY     37  25  60 SE9       30.06S WCI  31
ORD            SUNNY     36  26  67 VRB3      30.04S
YORK           SUNNY     37  28  70 SE13      30.08S WCI  29
AURORA         SUNNY     38  28  66 SE10      30.08R WCI  31
LEXINGTON      SUNNY     43  33  68 SE3       30.03S
HOLDREGE       SUNNY     39  27  62 E8        30.04S WCI  33
HEBRON         SUNNY     41  27  56 SE12      30.08S

...NEBRASKA PANHANDLE...

CITY           SKY/WX    TMP DP  RH WIND       PRES   REMARKS
CHADRON        SUNNY     47  35  63 W5        29.94F
ALLIANCE       SUNNY     50  34  54 SW3       29.98S
SCOTTSBLUFF    SUNNY     49  33  54 NW6       30.00S
SIDNEY         SUNNY     57  31  37 W12       30.01S

...WESTERN AND NORTH CENTRAL NEBRASKA...

CITY           SKY/WX    TMP DP  RH WIND       PRES   REMARKS
VALENTINE      SUNNY     46  34  62 S5        29.98F
AINSWORTH      SUNNY     50  35  55 S8        29.99F
ONEILL         SUNNY     38  30  74 S10       30.04S WCI  31
BROKEN BOW     SUNNY     38  29  70 SE8       30.02S WCI  32
IMPERIAL         N/A     51  33  50 W10       30.02R
NORTH PLATTE   SUNNY     47  37  68 VRB3      30.01S
MCCOOK         SUNNY     46  34  62 E7        30.02S

...EASTERN NEBRASKA...

CITY           SKY/WX    TMP DP  RH WIND       PRES   REMARKS
NORFOLK        SUNNY     36  27  69 SE14      30.10R WCI  27
SO SIOUX CITY  SUNNY     38  26  62 SE13      30.16S WCI  30
TEKAMAH        SUNNY     40  26  57 SE22      30.17R WCI  30
COLUMBUS       SUNNY     36  25  64 SE10      30.13R WCI  28
ALBION         SUNNY     36  26  66 SE10      30.08S WCI  28
OMAHA EPPLEY   MOSUNNY   40  26  57 SE16      30.17R WCI  31
OFFUTT AFB     SUNNY     40  26  57 SE13      30.16R WCI  32
MILLARD        SUNNY     39  27  62 SE15      30.16R WCI  31
LINCOLN        SUNNY     39  28  64 SE12      30.14R WCI  32
NEBRASKA CITY  SUNNY     39  28  62 SE13G20   30.15R WCI  32
BEATRICE       SUNNY     40  27  59 SE15      30.11R WCI  32
FALLS CITY     SUNNY     41  29  62 SE14      30.15R

...NORTHERN KANSAS...

CITY           SKY/WX    TMP DP  RH WIND       PRES   REMARKS
GOODLAND       SUNNY     58  36  43 W8        30.04S
HILL CITY      SUNNY     46  32  58 E3        30.04S
NORTON         SUNNY     45  30  57 E6        30.02S
PHILLIPSBURG   SUNNY     45  34  65 E3        30.05S
SMITH CENTER   SUNNY     39  28  65 E8        30.06R WCI  34
BELOIT         SUNNY     45  28  53 E6        30.06R
HAYS           MOSUNNY   46  32  57 NE5       30.03S
RUSSELL        SUNNY     46  35  65 NE6       30.02R
CONCORDIA      SUNNY     43  27  53 E10       30.06S
SALINA         SUNNY     47  33  58 SE6       30.05R
TOPEKA         SUNNY     43  26  51 E17       30.14R



USA.gov is the U.S. government's official web portal to all federal, state and local government web resources and services.